Tracking 25693 objects as of 1-Jul-2022
HD Live streaming from Space Station
objects crossing your sky now

FENGYUN 1C DEB

Track FENGYUN 1C DEB now!
10-day predictions


NORAD ID: 31773
Int'l Code: 1999-025CFY
Perigee: 716.1 km
Apogee: 818.2 km
Inclination: 98.9 °
Period: 100.0 minutes
Semi major axis: 7138 km
RCS: 0.0025 m2 (small)
Launch date: May 10, 1999
Source: People's Republic of China (PRC)
Launch site: Taiyaun Space Center, China (TSC)

Note: This is SATELLITE DEBRIS
aabbcc
Your satellite tracking list
Your tracking list is empty




NASA's NSSDC Master Catalog

Two Line Element Set (TLE):
1 31773U 99025CFY 22177.95105690  .00002185  00000-0  69452-3 0  9995
2 31773  98.9204  75.2392 0071509  34.1742 326.4017 14.39546921468236
Source of the keplerian elements: AFSPC